• în România
  • Lista ţărilor
  • Pe 7 zile
  • Temperatura apei
  • Hartă satelitară
  • Meteo pe hartă
  • Widget-uri
  • user-avatar
    Intrare

    Meteo pe oră la Dneprovka

    Astăzi, 20 August, Luni

    Timp Temperatura Precipitaţii Vânt Presiune Umiditate
    00:00 +9°C° 0 mm 2 m/s 742 mmHg 87%
    01:00 +9°C° 0 mm 1 m/s 742 mmHg 87%
    02:00 +9°C° 0 mm 1 m/s 742 mmHg 88%
    03:00 +9°C° 0 mm 1 m/s 742 mmHg 89%
    04:00 +9°C° 0 mm 1 m/s 742 mmHg 90%
    05:00 +9°C° 0 mm 1 m/s 742 mmHg 88%
    06:00 +10°C° 0 mm 1 m/s 742 mmHg 85%
    07:00 +11°C° 0 mm 1 m/s 742 mmHg 83%
    08:00 +13°C° 0 mm 2 m/s 742 mmHg 77%
    09:00 +15°C° 0 mm 2 m/s 742 mmHg 71%
    10:00 +16°C° 0 mm 2 m/s 742 mmHg 65%
    11:00 +17°C° 0 mm 2 m/s 742 mmHg 62%
    12:00 +18°C° 0 mm 2 m/s 742 mmHg 58%
    13:00 +19°C° 0 mm 2 m/s 741 mmHg 55%
    14:00 +19°C° 0 mm 2 m/s 741 mmHg 56%
    15:00 +19°C° 0 mm 2 m/s 741 mmHg 57%
    16:00 +19°C° 0 mm 2 m/s 741 mmHg 58%
    17:00 +18°C° 0 mm 2 m/s 741 mmHg 62%
    18:00 +18°C° 0 mm 1 m/s 740 mmHg 67%
    19:00 +16°C° 0 mm 1 m/s 740 mmHg 71%
    20:00 +15°C° 0 mm 1 m/s 740 mmHg 74%
    21:00 +14°C° 0 mm 1 m/s 740 mmHg 76%
    22:00 +13°C° 0 mm 1 m/s 740 mmHg 79%
    23:00 +13°C° 0 mm 2 m/s 740 mmHg 80%

    Mâine, 21 August, Marţi

    Timp Temperatura Precipitaţii Vânt Presiune Umiditate
    00:00 +13°C° 0 mm 2 m/s 740 mmHg 81%
    01:00 +13°C° 0 mm 2 m/s 740 mmHg 82%
    02:00 +12°C° 0 mm 3 m/s 739 mmHg 82%
    03:00 +12°C° 0 mm 3 m/s 739 mmHg 83%
    04:00 +12°C° 0 mm 3 m/s 739 mmHg 84%
    05:00 +12°C° 0 mm 3 m/s 739 mmHg 83%
    06:00 +13°C° 0 mm 4 m/s 739 mmHg 82%
    07:00 +14°C° 0 mm 4 m/s 739 mmHg 81%
    08:00 +15°C° 0,1 mm 4 m/s 739 mmHg 81%
    09:00 +17°C° 0,1 mm 4 m/s 739 mmHg 81%
    10:00 +18°C° 0,1 mm 4 m/s 739 mmHg 80%
    11:00 +20°C° 0,1 mm 4 m/s 739 mmHg 76%
    12:00 +22°C° 0,1 mm 4 m/s 739 mmHg 71%
    13:00 +23°C° 0,1 mm 4 m/s 738 mmHg 66%
    14:00 +25°C° 0,5 mm 4 m/s 738 mmHg 67%
    15:00 +25°C° 0,5 mm 4 m/s 738 mmHg 67%
    16:00 +25°C° 0,5 mm 5 m/s 738 mmHg 67%
    17:00 +23°C° 0,2 mm 4 m/s 737 mmHg 72%
    18:00 +22°C° 0,2 mm 3 m/s 737 mmHg 77%
    19:00 +21°C° 0,2 mm 3 m/s 737 mmHg 82%
    20:00 +20°C° 0 mm 3 m/s 737 mmHg 85%
    21:00 +19°C° 0 mm 3 m/s 737 mmHg 87%
    22:00 +18°C° 0 mm 3 m/s 737 mmHg 89%
    23:00 +17°C° 0 mm 3 m/s 737 mmHg 89%

    Poimâine, 22 August, Miercuri

    Timp Temperatura Precipitaţii Vânt Presiune Umiditate
    00:00 +17°C° 0 mm 3 m/s 737 mmHg 88%
    01:00 +15°C° 0 mm 4 m/s 736 mmHg 88%
    02:00 +15°C° 0 mm 4 m/s 736 mmHg 86%
    03:00 +15°C° 0 mm 4 m/s 736 mmHg 85%
    04:00 +14°C° 0 mm 4 m/s 736 mmHg 83%
    05:00 +15°C° 0 mm 4 m/s 736 mmHg 80%
    06:00 +15°C° 0 mm 4 m/s 736 mmHg 77%
    07:00 +15°C° 0 mm 5 m/s 735 mmHg 75%
    08:00 +17°C° 0 mm 5 m/s 735 mmHg 68%
    09:00 +20°C° 0 mm 6 m/s 735 mmHg 62%
    10:00 +22°C° 0 mm 7 m/s 735 mmHg 56%
    11:00 +23°C° 0 mm 7 m/s 735 mmHg 53%
    12:00 +24°C° 0 mm 7 m/s 735 mmHg 50%
    13:00 +26°C° 0 mm 7 m/s 735 mmHg 47%
    14:00 +24°C° 0,1 mm 7 m/s 735 mmHg 53%
    15:00 +22°C° 0,1 mm 6 m/s 734 mmHg 60%
    16:00 +21°C° 0,1 mm 6 m/s 734 mmHg 66%
    17:00 +20°C° 0,1 mm 6 m/s 734 mmHg 72%
    18:00 +17°C° 0,1 mm 5 m/s 735 mmHg 79%
    19:00 +16°C° 0,1 mm 5 m/s 735 mmHg 85%
    20:00 +15°C° 0 mm 4 m/s 735 mmHg 87%
    21:00 +14°C° 0 mm 3 m/s 735 mmHg 89%
    22:00 +13°C° 0 mm 3 m/s 735 mmHg 91%
    23:00 +12°C° 0 mm 3 m/s 735 mmHg 92%

    23 August, Joi

    Timp Temperatura Precipitaţii Vânt Presiune Umiditate
    00:00 +12°C° 0 mm 3 m/s 735 mmHg 93%
    01:00 +12°C° 0 mm 2 m/s 735 mmHg 94%
    02:00 +12°C° 0 mm 2 m/s 735 mmHg 95%
    03:00 +10°C° 0 mm 2 m/s 736 mmHg 95%
    04:00 +10°C° 0 mm 3 m/s 736 mmHg 96%
    05:00 +10°C° 0 mm 3 m/s 736 mmHg 94%
    06:00 +10°C° 0 mm 4 m/s 736 mmHg 92%
    07:00 +11°C° 0 mm 4 m/s 737 mmHg 90%
    08:00 +12°C° 0 mm 5 m/s 737 mmHg 84%
    09:00 +13°C° 0 mm 5 m/s 737 mmHg 78%
    10:00 +14°C° 0 mm 6 m/s 738 mmHg 72%
    11:00 +14°C° 0 mm 6 m/s 738 mmHg 68%
    12:00 +15°C° 0 mm 6 m/s 738 mmHg 64%
    13:00 +15°C° 0 mm 7 m/s 738 mmHg 60%
    14:00 +15°C° 0,1 mm 7 m/s 739 mmHg 60%
    15:00 +15°C° 0,1 mm 7 m/s 739 mmHg 60%
    16:00 +15°C° 0,1 mm 7 m/s 739 mmHg 60%
    17:00 +14°C° 0 mm 6 m/s 739 mmHg 64%
    18:00 +13°C° 0 mm 5 m/s 740 mmHg 68%
    19:00 +12°C° 0 mm 4 m/s 740 mmHg 72%
    20:00 +11°C° 0 mm 4 m/s 740 mmHg 74%
    21:00 +10°C° 0 mm 3 m/s 740 mmHg 77%
    22:00 +9°C° 0 mm 3 m/s 740 mmHg 79%
    23:00 +9°C° 0 mm 3 m/s 740 mmHg 80%

    24 August, Vineri

    Timp Temperatura Precipitaţii Vânt Presiune Umiditate
    00:00 +8°C° 0 mm 4 m/s 740 mmHg 81%
    01:00 +7°C° 0 mm 4 m/s 740 mmHg 82%
    02:00 +7°C° 0 mm 4 m/s 740 mmHg 81%
    03:00 +8°C° 0 mm 4 m/s 740 mmHg 80%
    04:00 +8°C° 0 mm 5 m/s 740 mmHg 79%
    05:00 +8°C° 0 mm 5 m/s 740 mmHg 78%
    06:00 +9°C° 0 mm 5 m/s 740 mmHg 77%
    07:00 +9°C° 0 mm 5 m/s 740 mmHg 76%
    08:00 +10°C° 0,1 mm 5 m/s 740 mmHg 75%
    09:00 +11°C° 0,1 mm 6 m/s 740 mmHg 74%
    10:00 +13°C° 0,1 mm 6 m/s 740 mmHg 72%
    11:00 +11°C° 0,3 mm 6 m/s 740 mmHg 77%
    12:00 +11°C° 0,3 mm 6 m/s 740 mmHg 81%
    13:00 +10°C° 0,3 mm 6 m/s 739 mmHg 85%
    14:00 +11°C° 0,2 mm 6 m/s 739 mmHg 85%
    15:00 +11°C° 0,2 mm 6 m/s 739 mmHg 84%
    16:00 +13°C° 0,2 mm 6 m/s 739 mmHg 84%
    17:00 +11°C° 0 mm 6 m/s 739 mmHg 85%
    18:00 +12°C° 0 mm 5 m/s 739 mmHg 87%
    19:00 +12°C° 0 mm 4 m/s 739 mmHg 89%
    20:00 +11°C° 0,1 mm 4 m/s 739 mmHg 91%
    21:00 +11°C° 0,1 mm 4 m/s 739 mmHg 93%
    22:00 +10°C° 0,1 mm 3 m/s 739 mmHg 95%
    23:00 +9°C° 0 mm 3 m/s 740 mmHg 95%

    25 August, Sâmbătă

    Timp Temperatura Precipitaţii Vânt Presiune Umiditate
    00:00 +9°C° 0 mm 3 m/s 740 mmHg 95%
    01:00 +8°C° 0 mm 3 m/s 740 mmHg 95%
    02:00 +8°C° 0 mm 3 m/s 740 mmHg 95%
    03:00 +8°C° 0 mm 3 m/s 740 mmHg 94%
    04:00 +7°C° 0 mm 3 m/s 740 mmHg 94%
    05:00 +8°C° 0 mm 3 m/s 740 mmHg 91%
    06:00 +8°C° 0 mm 4 m/s 741 mmHg 89%
    07:00 +8°C° 0 mm 4 m/s 741 mmHg 86%
    08:00 +10°C° 0 mm 5 m/s 741 mmHg 81%
    09:00 +13°C° 0 mm 5 m/s 741 mmHg 76%
    10:00 +14°C° 0 mm 5 m/s 741 mmHg 71%
    11:00 +15°C° 0 mm 5 m/s 741 mmHg 70%
    12:00 +16°C° 0 mm 5 m/s 741 mmHg 69%
    13:00 +17°C° 0 mm 4 m/s 741 mmHg 68%
    14:00 +17°C° 0 mm 4 m/s 741 mmHg 69%
    15:00 +17°C° 0 mm 4 m/s 741 mmHg 71%
    16:00 +17°C° 0 mm 4 m/s 741 mmHg 72%
    17:00 +17°C° 0 mm 3 m/s 741 mmHg 76%
    18:00 +16°C° 0 mm 3 m/s 741 mmHg 80%
    19:00 +15°C° 0 mm 2 m/s 741 mmHg 84%
    20:00 +14°C° 0 mm 2 m/s 741 mmHg 87%
    21:00 +14°C° 0 mm 2 m/s 741 mmHg 89%
    22:00 +13°C° 0 mm 2 m/s 741 mmHg 92%
    23:00 +13°C° 0 mm 2 m/s 741 mmHg 92%
    Arată mai mult